Miscellaneous Local Product
Issued by NWS North Platte, NE

Home | Current Version | Previous Version | Text Only | Print | Product List | Glossary On
Versions: 1 2 3 4 5 6 7 8 9 10 11 12 13 14 15 16 17 18 19 20 21 22 23 24 25 26 27 28 29 30 31 32 33 34 35 36 37 38 39 40 41 42 43 44 45 46 47 48 49 50
000
AXUS43 KLBF 181710
MISLBF


WESTERN AND NORTH CENTRAL NEBRASKA HOURLY WEATHER ROUNDUP
NATIONAL WEATHER SERVICE NORTH PLATTE NE
1200 PM CDT WED APR 18 2018

NOTE: "FAIR" INDICATES FEW OR NO CLOUDS BELOW 12,000 FEET WITH NO
SIGNIFICANT WEATHER AND/OR OBSTRUCTIONS TO VISIBILITY.

NOTE: STATIONS NOT REPORTING VARIABLES SUCH AS SKY/WEATHER OR
PRESSURE ARE PROVIDED BY RAWS AND APRS NETWORKS AND ARE NOT UNDER
NATIONAL WEATHER SERVICE QUALITY CONTROL.

...OBSERVATIONS IN AND NEAR THE EASTERN PANHANDLE OF NEBRASKA...

CITY           SKY/WX    TMP DP  RH WIND       PRES   REMARKS
PINE RIDGE     MOSUNNY   49  35  58 NW13      30.17R
GORDON         CLOUDY    46  35  65 N21G30    30.15R
CHADRON        SUNNY     52  32  46 NW18G26   30.17R
ALLIANCE       SUNNY     49  32  52 NW23G30   30.17R
SIDNEY         MOSUNNY   51  26  37 NW28G36   30.21R
CRESCENT LAKE    N/A     49  31  49 N17G29      N/A
$$

...OBSERVATIONS IN NORTHERN NEBRASKA AND FAR SOUTHERN SOUTH DAKOTA...

CITY           SKY/WX    TMP DP  RH WIND       PRES   REMARKS
WINNER         LGT SNOW  35  31  85 N14       30.13R VSB 1   WCI  26
VALENTINE      CLOUDY    37  32  82 NW14G22   30.14R WCI  28
AINSWORTH      CLOUDY    34  32  92 NW18G25   30.12R WCI  23
O`NEILL        CLOUDY    37  34  90 NW17G26   30.07R FOG     WCI  27
THEDFORD       CLOUDY    40  33  77 NW21G28   30.14R WCI  30
BROKEN BOW     CLOUDY    40  32  73 NW20G29   30.11R WCI  30
ORD            LGT SNOW  36  33  89 NW21      30.09R FOG     WCI  25
ALBION         LGT SNOW  36  32  88 NW15G22   30.05R WCI  26
VALENTINE NWR    N/A     36  32  84 NW15        N/A  WCI  27
HALSEY           N/A     37  30  77 NW9G21      N/A  WCI  30
BUTTE            N/A     32  31  96 N20G29      N/A  WCI  20
CHAMBERS         N/A     38  31  75 SW12        N/A  WCI  30
EWING            N/A     34  33  95 N17         N/A  WCI  23
$$

...OBSERVATIONS IN SOUTHWEST NEBRASKA AND FAR NORTHEAST COLORADO...

CITY           SKY/WX    TMP DP  RH WIND       PRES   REMARKS
WRAY           FAIR      54  23  30 N31G40    30.21R
HOLYOKE        FAIR      54  27  35 NW26G39   30.19S
IMPERIAL       MOSUNNY   52  30  43 NW22G40   30.16S
OGALLALA       MOSUNNY   52  32  46 NW29G35   30.15S
NORTH PLATTE   MOSUNNY   49  33  54 N25G38    30.13R
MCCOOK         PTSUNNY   52  31  44 N26G41    30.13R
LEXINGTON      MOSUNNY   45  33  63 NW28      30.13R
STAPLETON        N/A     41  34  75 W8G17       N/A
GOTHENBURG       N/A     39  28  66 NW23        N/A  WCI  28
CALLAWAY         N/A     38  31  76 NW24        N/A  WCI  27
$$

...OBSERVATIONS IN CENTRAL LINCOLN COUNTY AREA...

CITY           SKY/WX    TMP DP  RH WIND       PRES   REMARKS
N.P. AIRPORT   MOSUNNY   49  33  54 N25G38    30.13R
N.P. DOWNTOWN    N/A     47  34  61 NW14G25     N/A
N.P. SOUTHEAST   N/A     46  32  58 NW15G31     N/A
N.P. HILLCREST   N/A     47  35  62 NW24G36     N/A
$$

...OBSERVATIONS ACROSS THE ROCKIES AND WESTERN HIGH PLAINS...

CITY           SKY/WX    TMP DP  RH WIND       PRES   REMARKS
RAPID CITY     MOSUNNY   49  31  49 N26G38    30.16R
SCOTTSBLUFF    MOSUNNY   51  30  44 N22G33    30.22R
CHEYENNE       SUNNY     40  13  33 N18G33    30.24R WCI  31
DENVER         MOSUNNY   46   8  21 NW12G21   30.26S
BERTHOUD PASS  FAIR      10   0  61 W14       30.25R WCI  -5
ASPEN          SUNNY     36  11  35 N5        30.27S WCI  32
STEAMBOAT      FAIR      32  14  47 SW5       30.32R WCI  27
LARAMIE        SUNNY     36  15  42 NW16G28   30.23S WCI  26
CASPER         SUNNY     35  25  66 SW10      30.26S WCI  27
$$

...OBSERVATIONS ACROSS THE NORTHERN PLAINS...

CITY           SKY/WX    TMP DP  RH WIND       PRES   REMARKS
BISMARCK       PTSUNNY   43  35  73 NW6       30.17R
FARGO          FAIR      45  27  49 N17       30.09R
PIERRE         LGT SNOW  34  34 100 NW13      30.14R FOG     WCI  25
SIOUX FALLS    LGT SNOW  32  30  92 N17       30.02R VSB 1   WCI  21
$$

...OBSERVATIONS ACROSS THE CENTRAL AND SOUTHERN PLAINS...

CITY           SKY/WX    TMP DP  RH WIND       PRES   REMARKS
OMAHA          FLURRIES  37  30  75 N25G32    29.98R WCI  25
GRAND ISLAND   CLOUDY    39  30  70 NW22G33   30.08R WCI  29
KANSAS CITY    CLOUDY    43  33  68 W15G25    29.93R
WICHITA        MOSUNNY   60  31  33 NW31G46   30.05R
DODGE CITY     SUNNY     60  22  23 NW23G47   30.14R
OKLAHOMA CITY  SUNNY     62  29  28 N26G35    30.12S
DALLAS         MOSUNNY   74  33  22 N25G32    30.05R
AMARILLO       SUNNY     57  14  18 N23G35    30.27R
$$




USA.gov is the U.S. government's official web portal to all federal, state and local government web resources and services.